Flag for United Kingdom

Past Weather in Bromley, England, United Kingdom — Yesterday and Last 2 Weeks

Now
48 °F

Passing clouds.


Feels Like: 42 °F
Forecast: 58 / 50 °F
Wind: 16 mph from Northwest

Location: Biggin Hill Airport
Current Time: Sep 26, 2020 at 8:41:05 pm
Latest Report: Sep 26, 2020 at 7:50 pm
Visibility: N/A
Pressure29.86 "Hg
Humidity: 87%
Dew Point: 45 °F
Location of BromleyLocation

Past Weather in Bromley — Graph

°F

Bromley Temperature Yesterday

Maximum temperature yesterday: 54 °F (at 3:50 pm)
Minimum temperature yesterday: 43 °F (at 6:20 am)
Average temperature yesterday: 50 °F

High & Low Weather Summary for the Past Weeks

 TemperatureHumidityPressure
High82 °F (Sep 15, 2:50 pm)100% (Sep 15, 6:20 am)30.39 "Hg (Sep 15, 6:20 am)
Low43 °F (Sep 25, 6:20 am)25% (Sep 21, 4:50 pm)29.33 "Hg (Sep 24, 6:50 pm)
Average61 °F71%29.99 "Hg
* Reported Sep 11 7:20 pm — Sep 26 7:20 pm, Bromley. Weather by CustomWeather, © 2020

Note: Actual official high and low records may vary slightly from our data, if they occured in-between our weather recording intervals... More about our weather records

Bromley Weather History for the Previous 24 Hours

Scroll right to see more
 ConditionsComfort  
Time TempWeatherWind HumidityBarometerVisibility
7:20 pm
Sat, Sep 26
46 °FPassing clouds.15 mph93%29.86 "HgN/A
6:50 pm48 °FPassing clouds.18 mph87%29.86 "HgN/A
6:20 pm48 °FPartly sunny.16 mph82%29.86 "HgN/A
5:50 pm48 °FPartly sunny.18 mph87%29.86 "HgN/A
5:20 pm50 °FPartly sunny.22 mph76%29.83 "HgN/A
4:50 pm50 °FPartly sunny.20 mph76%29.83 "HgN/A
4:20 pm50 °FLight rain. Partly sunny.17 mph76%29.83 "HgN/A
3:50 pm50 °FPartly sunny.17 mph67%29.83 "HgN/A
3:20 pm50 °FPartly sunny.16 mph67%29.83 "HgN/A
2:50 pm50 °FPartly sunny.21 mph67%29.83 "HgN/A
2:20 pm50 °FPartly sunny.20 mph67%29.83 "HgN/A
1:50 pm50 °FPartly sunny.18 mph67%29.83 "HgN/A
12:50 pm50 °FScattered clouds.18 mph67%29.83 "HgN/A
10:20 pm
Fri, Sep 25
50 °FPassing clouds.17 mph67%29.77 "HgN/A
9:50 pm50 °FPassing clouds.20 mph62%29.77 "HgN/A
9:20 pm50 °FPassing clouds.17 mph62%29.77 "HgN/A
8:50 pm50 °FPassing clouds.18 mph62%29.74 "HgN/A
8:20 pm50 °FPassing clouds.18 mph62%29.74 "HgN/A
Weather by CustomWeather, © 2020

See weather overview